Tracking 19562 objects as of 23-Mar-2019
HD Live streaming from Space Station
objects crossing your sky now

H-2A DEB

Track H-2A DEB now!
10-day predictions


NORAD ID: 43675
Int'l Code: 2018-084E
Perigee: 598.0 km
Apogee: 623.0 km
Inclination: 97.9 °
Period: 96.8 minutes
Semi major axis: 6981 km
RCS: Unknown
Launch date: October 29, 2018
Source: Japan (JPN)
Launch site: TANEGASHIMA SPACE CENTER (TNSTA)

Note: This is SATELLITE DEBRIS
aabbcc
Your satellite tracking list
Your tracking list is empty




NASA's NSSDC Master Catalog

Two Line Element Set (TLE):
1 43675U 18084E   19081.97448022 +.00000595 +00000-0 +70297-4 0  9999
2 43675 097.8532 196.1740 0017957 176.2257 183.9098 14.88262941021532
Source of the keplerian elements: AFSPC